Change the Weather History Date:

Saturday, January 11, 2014

  Actual Average Record
Temperature  
Mean Temperature 49 °F 42 °F  
Max Temperature 59 °F 51 °F 83 °F (1928)
Min Temperature 39 °F 33 °F 0 °F (1962)
Degree Days  
Heating Degree Days 16 23  
Month to date heating degree days 323 253  
Since 1 July heating degree days 1599 1406  
Cooling Degree Days 0 0  
Month to date cooling degree days 0 0  
Year to date cooling degree days 0 0  
Growing Degree Days 2 (Base 50)    
Moisture  
Dew Point 36 °F    
Average Humidity 63    
Maximum Humidity 93    
Minimum Humidity 33    
Precipitation  
Precipitation T in 0.12 in 3.60 in (1898)
Month to date precipitation 1.56 1.28  
Year to date precipitation 1.56 1.28  
Snow  
Snow 0.00 in 0.00 in 2.00 in (1918)
Month to date snowfall 0.0 0.2  
Since 1 July snowfall 0.2 0.4  
Snow Depth 0.00 in    
Sea Level Pressure  
Sea Level Pressure 29.92 in    
Wind  
Wind Speed 8 mph (West)    
Max Wind Speed 20 mph    
Max Gust Speed 28 mph    
Visibility 10 miles    
Events      
T = Trace of Precipitation, MM = Missing Value Source: NWS Daily Summary

Daily Weather History Graph

Daily Weather History Graph

Search for Another Location

Airport or City:

Trip Planner

Search our weather history database for the weather conditions in past years. The results will help you decide how hot, cold, wet, or windy it might be!

Date:

Astronomy

Jan. 11, 2014 Rise Set
Actual Time 7:14 AM CST 5:17 PM CST
Civil Twilight 6:46 AM CST 5:45 PM CST
Nautical Twilight 6:15 AM CST 6:15 PM CST
Astronomical Twilight 5:45 AM CST 6:46 PM CST
Moon 2:00 PM CST (1/11) 3:21 AM CST (1/11)
Length of Visible Light 10h 58m
Length of Day
10h 03m
Waxing Gibbous, 83% of the Moon is Illuminated
Jan 11
Waxing Gibbous
Jan 15
Full
Jan 23
Last Quarter
Jan 30
New
Feb 6
First Quarter

Hourly Weather History & Observations

Time (CST) Temp. Windchill Dew Point Humidity Pressure Visibility Wind Dir Wind Speed Gust Speed Precip Events Conditions
12:53 AM 55.0 °F - 52.0 °F 89% 29.73 in 10.0 mi West 6.9 mph - 0.00 in   Mostly Cloudy
1:53 AM 52.0 °F - 46.9 °F 83% 29.75 in 10.0 mi West 3.5 mph - N/A   Mostly Cloudy
2:53 AM 50.0 °F - 46.0 °F 86% 29.78 in 10.0 mi SW 5.8 mph - N/A   Partly Cloudy
3:53 AM 48.0 °F - 45.0 °F 89% 29.79 in 10.0 mi Calm Calm - N/A   Clear
4:53 AM 46.9 °F - 41.0 °F 80% 29.81 in 10.0 mi SW 5.8 mph - N/A   Clear
5:53 AM 46.0 °F 42.5 °F 41.0 °F 83% 29.82 in 10.0 mi WSW 6.9 mph - N/A   Clear
6:53 AM 45.0 °F 41.8 °F 39.9 °F 82% 29.84 in 10.0 mi WSW 5.8 mph - N/A   Clear
7:53 AM 44.1 °F 40.8 °F 37.9 °F 79% 29.88 in 10.0 mi SW 5.8 mph - N/A   Clear
8:53 AM 46.9 °F - 39.0 °F 74% 29.91 in 10.0 mi West 11.5 mph - N/A   Clear
9:53 AM 48.0 °F - 37.9 °F 68% 29.94 in 10.0 mi West 13.8 mph 23.0 mph N/A   Clear
10:53 AM 51.1 °F - 37.9 °F 61% 29.95 in 10.0 mi West 13.8 mph - N/A   Clear
11:53 AM 53.1 °F - 39.0 °F 59% 29.94 in 10.0 mi West 15.0 mph - N/A   Clear
12:53 PM 55.0 °F - 37.9 °F 53% 29.92 in 10.0 mi West 11.5 mph - N/A   Clear
1:53 PM 57.0 °F - 35.1 °F 44% 29.92 in 10.0 mi West 15.0 mph 23.0 mph N/A   Clear
2:53 PM 59.0 °F - 32.0 °F 36% 29.92 in 10.0 mi West 16.1 mph 24.2 mph N/A   Clear
3:53 PM 59.0 °F - 30.0 °F 33% 29.94 in 10.0 mi WNW 17.3 mph 23.0 mph N/A   Clear
4:53 PM 57.0 °F - 28.9 °F 34% 29.95 in 10.0 mi West 8.1 mph - N/A   Clear
5:53 PM 53.1 °F - 30.0 °F 41% 29.97 in 10.0 mi West 8.1 mph - N/A   Clear
6:53 PM 52.0 °F - 30.0 °F 43% 30.00 in 10.0 mi West 8.1 mph - N/A   Clear
7:53 PM 48.9 °F - 28.9 °F 46% 30.03 in 10.0 mi WNW 4.6 mph - N/A   Clear
8:53 PM 48.0 °F - 28.9 °F 48% 30.05 in 10.0 mi West 5.8 mph - N/A   Clear
9:53 PM 46.9 °F - 28.9 °F 50% 30.06 in 10.0 mi West 3.5 mph - N/A   Clear
10:53 PM 46.0 °F 44.8 °F 28.9 °F 51% 30.07 in 10.0 mi West 3.5 mph - N/A   Clear
11:53 PM 39.0 °F 35.7 °F 30.0 °F 70% 30.05 in 10.0 mi WSW 4.6 mph - N/A   Clear